Location: Franzen
(48.6167°N, 15.3833°E)
Time: 09:10:46
(UTC+00:00)

Cosmos 1709 Rocket - Pass Details

Date: 07 August 2021
Orbit: 947 x 1002 km, 82.9° (Epoch: 18 September)

Event Time Altitude Azimuth Distance (km) Brightness Sun altitude
Exits shadow 22:31:43 56° 181° (S) 1,185 4.0 -24.8°
Maximum altitude 22:33:15 86° 98° (E) 1,012 4.0 -24.9°
Drops below altitude 10° 22:39:41 10° 10° (N) 2,787 7.3 -25.0°
Sets 22:42:13 0° 10° (N) 3,739 8.3 -25.1°
